Total_Precipitation_Accumulation
2.75 2.62 3.90 4.11 3.49 2.74 2.54 2.47 2.26 2.13 2.17 2.20 2.03 1.94 1.87 1.84 1.67 1.57 1.41 1.30 1.28 1.28 1.33 1.35 1.42 1.50 1.48 1.37 1.26 1.50 1.59 1.55 1.54 1.49 1.63 1.82 2.02 2.21 2.40 2.61 2.86 3.10 2.86
2.24 2.23 3.59 3.87 3.33 2.70 2.34 2.26 2.20 2.10 2.21 2.17 2.13 2.00 1.94 1.78 1.66 1.62 1.39 1.32 1.32 1.31 1.26 1.34 1.44 1.38 1.36 1.39 1.37 1.53 1.56 1.41 1.35 1.49 1.83 2.11 2.17 2.26 2.34 2.38 2.72 2.99 2.76
1.74 1.84 2.72 3.48 3.17 2.70 2.30 2.12 2.15 2.15 2.29 2.27 2.25 2.08 1.92 1.79 1.72 1.58 1.47 1.53 1.49 1.36 1.25 1.22 1.38 1.43 1.39 1.52 1.51 1.53 1.46 1.41 1.41 1.67 2.31 3.05 2.69 2.39 2.37 2.35 2.52 2.48 2.50
1.59 1.68 2.04 2.85 2.75 2.35 2.13 2.09 2.22 2.27 2.40 2.35 2.21 1.99 1.84 1.83 1.76 1.61 1.58 1.72 1.55 1.44 1.32 1.27 1.42 1.55 1.46 1.52 1.51 1.45 1.37 1.43 1.63 1.77 2.27 2.93 3.06 2.60 2.51 2.55 2.48 2.43 2.55
1.53 1.65 2.23 2.84 2.58 2.28 2.08 2.25 2.48 2.51 2.48 2.28 2.05 1.85 1.83 1.87 1.81 1.74 1.79 1.88 1.65 1.53 1.37 1.32 1.41 1.46 1.41 1.41 1.38 1.39 1.39 1.60 1.89 1.79 2.14 2.68 3.26 3.06 2.53 2.48 2.50 2.51 2.70
1.55 1.65 2.12 2.73 2.55 2.33 2.13 2.35 2.52 2.58 2.63 2.50 2.20 1.94 1.86 1.85 1.82 1.76 1.82 1.74 1.66 1.58 1.40 1.33 1.37 1.43 1.42 1.39 1.39 1.41 1.50 1.70 1.74 1.84 2.19 2.64 3.09 3.07 2.59 2.44 2.52 2.76 2.78
1.41 1.44 1.71 2.41 2.52 2.36 2.26 2.47 2.56 2.66 2.83 2.74 2.46 2.26 2.02 1.86 1.83 1.82 1.86 1.71 1.64 1.58 1.50 1.44 1.44 1.45 1.44 1.46 1.39 1.30 1.29 1.31 1.31 1.60 1.89 2.58 2.90 2.87 2.71 2.54 2.49 2.58 2.72
1.49 1.39 1.40 2.08 2.35 2.34 2.39 2.45 2.45 2.49 2.58 2.63 2.43 2.23 1.99 1.84 1.84 1.97 2.03 1.84 1.73 1.57 1.49 1.48 1.52 1.58 1.61 1.60 1.49 1.38 1.27 1.02 0.96 1.23 1.68 2.39 2.88 2.85 2.67 2.68 2.72 2.67 2.88
1.62 1.55 1.45 1.60 1.92 2.26 2.33 2.22 2.23 2.24 2.27 2.40 2.26 2.14 1.95 1.89 1.87 1.98 2.02 1.90 1.86 1.77 1.70 1.68 1.82 1.84 1.79 1.83 1.64 1.50 1.33 1.02 1.02 1.24 1.38 2.25 2.87 2.86 2.63 2.58 2.78 2.95 2.99
1.81 1.66 1.48 1.44 1.52 1.60 1.82 1.99 2.17 2.22 2.22 2.30 2.12 1.93 1.81 1.80 1.83 1.96 1.95 1.90 1.96 1.96 1.98 1.99 2.05 2.07 2.13 1.99 1.66 1.41 1.22 0.99 1.08 1.16 1.51 2.12 2.84 2.99 2.79 2.53 2.45 2.50 2.58
1.61 1.50 1.53 1.53 1.55 1.60 1.55 1.61 1.95 2.08 2.12 2.01 1.93 1.81 1.66 1.42 1.37 1.56 1.69 2.04 2.25 2.39 2.33 2.31 2.17 2.03 1.88 1.67 1.44 1.19 0.98 0.94 1.07 1.21 1.68 2.26 2.89 3.14 2.85 2.43 2.20 2.14 2.22
1.35 1.30 1.35 1.37 1.48 1.53 1.39 1.61 1.92 1.75 1.66 1.44 1.45 1.33 1.39 1.34 1.30 1.13 1.36 1.86 2.07 2.11 2.08 2.11 2.07 1.78 1.43 1.09 1.01 0.93 0.83 0.81 0.86 1.03 1.65 2.40 2.77 2.98 2.72 2.43 2.27 2.19 2.23
1.14 1.10 1.04 1.09 1.14 1.27 1.44 1.69 1.98 2.04 1.85 1.64 1.39 1.31 1.35 1.28 1.20 1.08 1.10 1.28 1.43 1.46 1.30 1.29 1.29 1.15 1.04 0.96 0.94 0.82 0.78 0.75 0.83 1.01 1.74 2.41 2.72 2.87 2.73 2.55 2.52 2.54 2.51
0.96 1.03 0.85 0.76 0.90 1.07 1.19 1.32 1.60 1.66 1.59 1.48 1.29 1.19 1.29 1.33 1.22 1.17 1.17 1.21 1.22 1.20 1.22 1.18 1.23 1.19 1.00 0.91 0.91 0.95 0.91 0.85 0.93 1.18 1.77 2.29 2.69 2.98 2.91 2.81 2.81 2.81 2.90
1.01 1.00 0.89 0.77 0.74 0.83 0.89 0.99 1.14 1.30 1.37 1.39 1.36 1.18 1.19 1.31 1.29 1.26 1.20 1.24 1.13 1.04 1.10 1.17 1.21 1.23 1.12 0.98 0.92 0.94 1.02 0.95 0.96 1.12 1.47 1.98 2.53 3.00 3.23 3.17 2.97 2.81 2.83
0.99 1.05 0.97 0.83 0.81 0.83 0.80 0.80 0.80 0.94 1.11 1.22 1.26 1.18 1.19 1.30 1.31 1.37 1.31 1.25 1.18 1.08 1.11 1.28 1.25 1.27 1.24 1.17 1.01 1.01 1.04 0.98 0.98 1.03 1.19 1.59 1.99 2.46 3.04 3.41 3.22 2.91 2.67
0.97 1.02 1.04 0.96 0.96 0.95 0.90 0.86 0.73 0.76 0.86 1.02 1.17 1.17 1.24 1.21 1.16 1.23 1.26 1.20 1.17 1.18 1.20 1.25 1.30 1.37 1.28 1.19 1.14 1.10 1.08 1.03 0.98 1.04 1.00 1.15 1.31 1.75 2.32 2.83 3.12 3.10 2.94
0.95 1.05 1.11 1.06 1.08 1.08 1.08 1.04 0.96 0.98 1.05 1.12 1.29 1.27 1.22 1.26 1.22 1.22 1.25 1.24 1.27 1.30 1.29 1.33 1.40 1.40 1.36 1.34 1.29 1.25 1.12 1.08 1.04 1.04 0.99 0.99 1.08 1.14 1.45 1.83 2.26 2.70 2.92
0.87 0.94 1.02 1.11 1.15 1.14 1.16 1.25 1.33 1.35 1.35 1.35 1.42 1.36 1.24 1.25 1.31 1.43 1.46 1.46 1.42 1.44 1.44 1.39 1.41 1.34 1.34 1.35 1.27 1.29 1.24 1.20 1.14 1.01 1.03 1.00 1.03 0.99 1.08 1.13 1.34 1.66 2.06
0.78 0.84 0.94 1.03 1.22 1.33 1.35 1.34 1.49 1.53 1.56 1.62 1.67 1.52 1.39 1.44 1.57 1.75 1.83 1.72 1.68 1.67 1.65 1.59 1.64 1.53 1.42 1.45 1.34 1.32 1.29 1.20 1.22 1.18 1.17 1.10 1.14 1.09 1.04 0.96 0.98 0.95 1.20
0.67 0.73 0.83 0.92 1.08 1.18 1.24 1.36 1.56 1.73 1.88 1.97 2.02 1.89 1.75 1.72 1.88 2.03 1.95 2.03 2.04 1.90 1.89 1.94 1.98 1.94 1.76 1.62 1.67 1.57 1.32 1.14 1.21 1.18 1.18 1.23 1.23 1.32 1.32 1.16 1.03 0.98 0.97
0.45 0.50 0.61 0.74 0.82 0.95 1.12 1.38 1.59 1.87 1.95 2.03 2.10 2.09 2.00 1.94 2.09 2.13 2.21 2.30 2.33 2.34 2.27 2.16 2.26 2.40 2.14 1.90 2.01 2.29 1.92 1.58 1.23 1.00 1.12 1.20 1.25 1.48 1.51 1.31 1.09 1.04 1.03
0.37 0.40 0.48 0.61 0.77 1.01 1.25 1.57 1.84 2.12 2.23 2.29 2.25 2.26 2.25 2.26 2.31 2.35 2.41 2.46 2.48 2.34 2.33 2.45 2.58 2.90 2.70 2.33 2.12 2.40 2.25 1.95 1.66 1.22 1.10 1.19 1.27 1.41 1.51 1.55 1.43 1.32 1.23
0.34 0.40 0.53 0.73 0.94 1.23 1.57 1.93 2.19 2.46 2.60 2.44 2.41 2.41 2.37 2.29 2.29 2.40 2.40 2.38 2.35 2.29 2.36 2.43 2.50 2.92 3.12 2.82 2.47 2.05 1.83 1.81 1.92 1.67 1.24 1.18 1.27 1.29 1.38 1.47 1.44 1.51 1.47
0.47 0.55 0.74 1.00 1.31 1.60 1.86 2.04 2.29 2.42 2.44 2.39 2.36 2.36 2.27 2.22 2.19 2.20 2.19 2.28 2.29 2.32 2.38 2.55 2.69 2.97 3.00 2.99 2.80 2.57 2.33 2.01 1.69 1.79 1.75 1.45 1.38 1.29 1.37 1.49 1.53 1.64 1.68
0.66 0.82 1.01 1.18 1.49 1.69 1.84 1.95 2.09 2.23 2.29 2.29 2.29 2.33 2.32 2.28 2.16 2.08 2.02 2.09 2.21 2.35 2.39 2.48 2.65 2.92 3.03 3.12 3.04 2.75 2.63 2.47 2.19 2.09 1.86 1.71 1.67 1.44 1.39 1.44 1.49 1.62 1.80